Location: Glen Hill
(32.8948°N, 96.4744°W)
Time: 02:57:15
(UTC+00:00)

Daily predictions for brighter satellites

Satellite Brightness Start Highest point End
(mag) Time Altitude Azimuth Time Altitude Azimuth Time Altitude Azimuth
Cosmos 2034 Rocket 4.0 01:45:55 10° N 01:52:09 72° E 01:58:25 10° SSE
NOSS 3-4 (A) 3.3 01:48:43 10° SSW 01:54:26 74° ESE 02:00:24 10° NE
NOSS 3-4 (C) 3.3 01:48:50 10° SSW 01:54:33 73° ESE 02:00:30 10° NE
OBJECT-B 1.3 01:56:15 10° SSE 01:59:15 40° ENE 02:02:17 10° N
SAR-Lupe-1 4.3 01:56:01 10° NNE 01:59:28 46° E 02:02:54 10° S
SAR-Lupe-4 4.0 01:56:30 10° NNE 01:59:54 40° E 02:03:16 10° S
Cosmos 405 Rocket 2.7 01:56:55 10° S 02:00:41 62° E 02:04:34 10° NNE
Atlas Centaur 2 2.8 01:58:44 10° SSW 02:01:41 19° SSE 02:04:23 10° ESE
SJ-6B 3.3 01:58:26 10° SE 02:01:56 39° ENE 02:05:26 10° N
OAO 1 Rocket 4.5 01:57:32 10° WSW 02:02:52 72° SSE 02:08:11 10° ENE
ATLAS 2AS CENTAUR R/B 3.3 01:55:37 10° S 02:03:00 47° ESE 02:10:27 10° NE
Centaur D-1AR AC-39 3.5 01:59:04 10° WSW 02:05:54 24° SSW 02:09:03 10° SE
Cosmos 1437 Rocket 3.9 02:08:02 10° NNE 02:11:15 25° ENE 02:14:11 12° SE
Resurs 01 Rocket 3.3 02:08:55 10° ESE 02:11:46 17° ENE 02:14:39 10° NNE
Cosmos 1812 Rocket 3.9 02:09:35 10° N 02:14:03 72° W 02:18:29 10° S
Cosmos 1408 2.5 02:11:09 10° S 02:14:47 78° E 02:18:25 10° N
CZ-4 R/B 4.2 02:14:15 10° SW 02:17:04 18° W 02:19:56 10° NW
Cosmos 1825 Rocket 3.6 02:14:43 10° S 02:19:03 85° W 02:23:24 10° N
RESURS DK-1 3.9 02:17:56 12° SE 02:19:56 17° ESE 02:22:35 10° ENE
OAO 3 Copernicus 4.3 02:15:40 10° WSW 02:20:42 81° SSE 02:25:44 10° ENE
Cosmos-2242 2.9 02:18:53 10° N 02:23:10 81° E 02:27:24 10° S
Cosmos 1633 4.5 02:29:09 13° E 02:29:09 13° E 02:30:54 10° ENE
CENTAUR R/B 3.3 02:21:14 10° NNW 02:29:46 78° ENE 02:37:50 14° SE
Sakura Rocket 4.5 02:21:08 10° W 02:30:08 65° S 02:35:42 15° ESE
USA 267 3.9 02:25:12 10° ENE 02:30:55 31° SE 02:36:35 10° S
In-Cosmos 22 Rocket 4.4 02:25:44 10° SSW 02:31:00 68° W 02:36:18 10° N
Cosmos 44 Rocket 3.4 02:27:34 10° SSW 02:32:35 58° ESE 02:37:42 10° NE
Cosmos 1634 Rocket 4.0 02:30:59 10° N 02:37:15 75° E 02:43:27 10° S
Ariane Rocket 3.0 02:37:32 15° SSE 02:41:45 64° ENE 02:46:46 10° N
Helios 1A Rocket 3.4 02:37:49 10° S 02:41:46 58° W 02:45:45 10° NNW
ERS-2 2.0 02:38:42 10° NNE 02:42:21 89° WNW 02:45:58 10° SSW
IRS-1A Rocket 4.2 02:38:17 13° SSE 02:43:18 72° ENE 02:48:48 10° N
USA 238 DEB 3.9 02:37:06 10° NNW 02:44:32 88° WSW 02:50:46 17° SSE
USA 238 3.9 02:37:12 10° NNW 02:44:38 89° WSW 02:50:51 17° SSE
SEDSat Delta rocket 2.9 02:43:44 10° WSW 02:47:40 54° SSE 02:49:48 25° E
Cosmos 783 Rocket 4.4 02:42:51 10° S 02:47:59 69° ESE 02:53:09 10° NNE
OAO 2 Rocket 3.5 02:44:50 10° W 02:49:52 70° N 02:53:27 19° E
CZ-2C R/B 4.3 02:47:59 10° NNE 02:52:09 35° E 02:53:39 27° SE
Cosmos 1242 Rocket 2.6 02:49:10 10° N 02:52:41 52° E 02:53:50 35° SE
EPKM 3.8 02:52:21 10° SW 02:54:44 23° S 02:55:15 22° SSE
Cosmos 2221 3.2 02:51:07 10° NNE 02:55:05 35° E 02:56:12 30° ESE
USA 307 3.0 02:51:40 10° NW 02:55:54 65° NE 02:57:40 33° ESE
MOS 1 4.3 02:51:32 13° SSE 02:56:36 83° WSW 03:02:17 10° NNW
Terra 4.1 03:04:47 10° ENE 03:05:01 10° ENE 03:05:15 10° ENE
IGS 5A 3.3 03:04:14 34° SSE 03:05:57 74° ENE 03:10:04 10° N
Hubble Space Telescope 1.2 03:03:01 10° WSW 03:06:54 41° S 03:07:16 40° SSE
Cosmos 1697 Rocket 3.1 03:01:53 10° N 03:07:20 46° ENE 03:09:29 32° ESE
Cosmos 2082 Rocket 2.1 03:02:54 10° SSW 03:08:28 76° ESE 03:14:07 10° NNE
Cosmos 1606 3.4 03:07:56 10° NNE 03:11:14 34° ENE 03:11:14 34° ENE
SPOT 3 Rocket 3.6 03:09:28 33° SE 03:11:47 65° ENE 03:16:57 10° N
Cosmos 1833 Rocket 3.8 03:06:52 10° SW 03:12:14 45° WNW 03:17:38 10° N
USA 305 2.8 03:08:25 10° NW 03:12:36 77° SW 03:13:42 47° SSE
USA 308 2.8 03:08:30 10° NW 03:12:45 86° SW 03:13:51 49° SE
Cosmos 773 Rocket 4.1 03:10:27 10° SSW 03:15:41 78° WNW 03:20:54 10° NNE
BREEZE-M R/B 3.6 03:06:42 10° SSW 03:15:59 44° SE 03:17:24 34° E
Cosmos 2151 3.7 03:23:49 35° ENE 03:23:49 35° ENE 03:27:04 10° NNE
SWAS 4.5 03:23:02 10° NNW 03:27:18 74° WSW 03:28:06 56° S
Landsat 7 4.0 03:28:04 37° S 03:29:53 69° WSW 03:34:38 10° NNW
Cosmos 1092 Rocket 4.3 03:29:20 41° ESE 03:30:37 46° E 03:36:34 10° NNE
Centaur D AC-29 3.5 03:17:19 10° W 03:32:36 28° SW 03:35:11 22° S
Cosmos 2279 Rocket 4.4 03:27:23 10° NNW 03:33:28 60° W 03:37:33 21° SSW
Cosmos 1842 Rocket 3.6 03:31:08 10° N 03:35:37 76° W 03:36:31 55° SSW
GP-B 4.3 03:31:56 10° NNE 03:34:53 29° ENE 03:34:53 29° ENE
USA 306 3.5 03:32:33 10° NW 03:36:36 43° SW 03:36:55 42° SW
Meteor 2-3 Rocket 3.9 03:36:27 47° ESE 03:36:47 47° E 03:42:11 10° NNE
Cosmos 1076 Rocket 3.8 03:39:35 45° SW 03:40:43 64° W 03:45:02 10° N
ERS-1 Rocket 3.7 03:40:52 37° ENE 03:40:52 37° ENE 03:45:28 10° N
Spot 2 Rocket 3.5 03:41:46 56° E 03:42:13 59° ENE 03:47:15 10° N
Cosmos 2369 3.7 03:36:46 10° NNW 03:42:24 66° ENE 03:43:19 57° ESE
Resurs 01 Rocket 3.0 03:46:24 26° SW 03:47:57 34° W 03:51:59 10° NNW
Cosmos 2026 Rocket 4.1 03:49:09 52° ESE 03:49:49 54° E 03:55:58 10° NNE
Atlas Centaur 2 3.4 03:46:23 10° WSW 03:47:12 15° WSW 03:47:12 15° WSW
BREEZE M DEB (TANK) 3.3 03:47:47 10° WSW 03:50:29 63° NNW 04:02:20 10° ENE
Cosmos 1980 Rocket 2.3 03:47:57 10° NNW 03:53:30 58° ENE 03:53:52 57° E
ATLAS 2AS CENTAUR R/B 4.4 03:46:57 10° WSW 03:54:06 37° NW 04:01:13 10° NNE
Cosmos 1627 Rocket 4.5 03:54:38 58° SE 03:55:28 64° E 04:01:43 10° NNE
Cosmos 1538 Rocket 4.2 03:53:58 36° SW 03:56:03 68° WNW 04:01:14 10° N
Nadezhda 4 Rocket 4.4 03:52:26 23° SSW 03:56:17 58° W 04:02:22 10° N
RESURS DK-1 4.2 03:54:00 10° SW 03:57:40 30° WNW 04:01:21 10° N
Cosmos 158 Rocket 3.8 03:58:13 86° SSE 03:58:17 88° ESE 04:03:30 10° NNE
Cosmos 2322 Rocket 4.3 03:58:12 10° NNE 04:00:38 13° NE 04:00:59 13° ENE
USA 245 4.4 04:00:12 52° SSW 04:01:25 66° WSW 04:06:33 10° NNW
H-2A R/B 3.7 04:01:13 10° WSW 04:02:15 14° WSW 04:02:15 14° WSW
OAO 3 Copernicus 4.4 04:00:21 10° W 04:05:22 68° N 04:05:31 68° NNE
SPOT 1/Viking Rocket 4.3 04:09:03 40° SW 04:09:58 44° W 04:14:55 10° NNW
USA 267 3.7 04:07:38 10° NE 04:14:01 59° NW 04:20:24 10° WSW
ARIANE 5 R/B 3.2 04:16:06 56° NW 04:16:06 56° NW 04:19:46 10° NNW
ATLAS 3B R/B 3.0 04:11:56 10° NNW 04:19:00 55° ENE 04:20:00 52° E
SPOT 5 3.6 04:23:22 45° NNW 04:23:22 45° NNW 04:26:24 10° NNW
Cosmos 1428 Rocket 4.4 04:21:28 70° SW 04:22:07 78° W 04:28:15 10° N
SL-16 R/B 3.6 04:21:19 10° N 04:25:32 27° NE 04:25:32 27° NE
Terra 2.9 04:43:36 43° NNW 04:43:36 43° NNW 04:46:52 10° NNW
Cosmos 2360 Rocket 3.8 05:11:20 10° N 05:14:46 28° NNE 05:14:46 28° NNE
Cosmos 2322 Rocket 3.6 05:39:38 10° NNW 05:42:47 35° NNW 05:42:47 35° NNW
ATLAS 3B R/B 4.4 06:03:31 10° NW 06:07:15 23° W 06:07:15 23° W
SL-16 R/B 4.2 06:05:12 10° NW 06:07:23 21° WNW 06:07:23 21° WNW
Cosmos 2219 Rocket 3.9 06:08:11 10° N 06:11:15 27° NNE 06:11:15 27° NNE
COSMOS 2455 4.1 06:27:36 36° N 06:27:36 36° N 06:31:23 10° NNE
USA 234 4.1 06:28:20 44° NW 06:28:20 44° NW 06:32:34 10° NW
Lacrosse 5 4.4 06:57:57 14° NE 06:57:57 14° NE 06:58:43 10° NE
ATLAS 5 CENTAUR R/B 4.0 06:48:52 10° N 06:53:52 27° NE 06:54:21 27° ENE
Cosmos 2333 Rocket 3.9 06:49:10 10° NNW 06:51:37 27° NNW 06:51:37 27° NNW
Resurs 1-4 Rocket 4.3 07:01:30 10° NE 07:03:26 18° ENE 07:03:26 18° ENE
Cosmos 2297 Rocket 3.6 07:18:52 35° NNE 07:18:52 35° NNE 07:22:04 10° NNE
NOSS 3-1 (C) 4.4 07:12:05 10° NNW 07:18:38 62° WNW 07:18:38 62° WNW
Cosmos 2227 Rocket 3.5 07:29:32 37° NNE 07:29:32 37° NNE 07:32:52 10° NNE
Cosmos 2237 Rocket 3.5 07:22:26 10° N 07:26:22 37° NNE 07:26:22 37° NNE
USA 229 DEB 4.1 07:23:57 10° NNW 07:30:34 71° N 07:30:34 71° N
USA 229 4.0 07:24:03 10° NNW 07:30:42 71° N 07:30:42 71° N
CZ-2D R/B 3.4 07:38:54 10° NNE 07:42:21 38° NE 07:42:21 38° NE
ADEOS II 3.9 07:41:39 10° NE 07:44:45 24° ENE 07:44:45 24° ENE
SL-16 R/B 4.2 07:47:05 10° N 07:51:32 23° ENE 07:53:48 18° E
NOSS 3-1 (A) 4.1 07:43:59 10° NNW 07:51:23 73° WNW 07:51:23 73° WNW
Cosmos 2263 Rocket 4.2 07:54:29 19° E 07:54:29 19° E 07:57:51 10° NE
Cosmos 2344 4.1 08:04:50 42° ESE 08:05:11 43° ESE 08:12:04 10° NE
Cosmos 2219 4.5 08:16:32 32° NW 08:16:32 32° NW 08:20:37 10° N
Cosmos 2251 Rocket 4.2 08:36:33 45° NNW 08:36:33 45° NNW 08:40:34 10° N
Cosmos 2082 4.2 08:36:22 49° NW 08:36:22 49° NW 08:41:12 10° N
IDEFIX/ARIANE 42P 3.3 08:31:30 10° NNE 08:36:25 44° E 08:36:25 44° E
Lacrosse 5 3.6 08:37:08 24° NW 08:37:08 24° NW 08:41:03 10° NNE
ATLAS 5 CENTAUR R/B 3.6 08:32:46 10° NW 08:35:47 30° WNW 08:35:47 30° WNW
Cosmos 2184 Rocket 4.2 08:44:11 56° WNW 08:44:11 56° WNW 08:49:55 10° N
SL-16 R/B 2.7 08:45:15 56° WNW 08:45:15 56° WNW 08:50:34 10° NNW
Resurs 1-4 Rocket 3.3 08:40:50 10° N 08:44:30 30° NW 08:44:30 30° NW
USA 215 3.9 08:40:56 10° ENE 08:46:58 39° SE 08:47:58 37° SSE
Cosmos 1733 Rocket 4.4 08:50:26 33° NNW 08:50:26 33° NNW 08:53:07 10° N
Cosmos 1295 Rocket 4.3 08:49:06 78° S 08:49:33 89° E 08:55:42 10° N
Cosmos 2154 Rocket 3.8 08:50:41 75° WSW 08:50:52 76° W 08:57:05 10° N
Cosmos 1190 Rocket 4.3 08:51:32 56° ESE 08:51:43 56° ESE 08:56:54 10° NNE
SL-8 R/B 4.3 08:53:11 49° NNW 08:53:11 49° NNW 08:57:23 10° NE
Cosmos 1140 Rocket 3.5 08:54:55 78° E 08:54:55 78° E 09:00:04 10° NNE
Cosmos 2297 Rocket 4.4 09:00:40 11° WNW 09:01:07 11° NW 09:02:49 10° NW
ASTRO E2 4.5 09:05:37 25° ESE 09:05:37 25° ESE 09:07:27 10° E
Meteor 1-21 4.5 08:58:00 10° N 09:03:47 68° E 09:05:53 40° SSE
MSX 4.0 09:02:57 10° NNE 09:08:40 68° ESE 09:10:10 48° SSE
Okean 2 3.7 09:05:24 10° N 09:09:08 65° NE 09:09:08 65° NE
Cosmos 2237 Rocket 4.3 09:07:30 10° NW 09:08:08 12° WNW 09:08:08 12° WNW
Cosmos 2227 Rocket 4.3 09:11:21 12° WNW 09:11:52 12° NW 09:14:11 10° NNW
ARIANE 5 R/B 3.4 09:08:45 10° NNE 09:13:43 45° E 09:15:40 31° SSE
Meteor 1-28 Rocket 4.4 09:16:25 34° NNW 09:16:25 34° NNW 09:18:39 10° NNW
ADEOS Rocket 3.4 09:16:08 40° W 09:16:08 40° W 09:20:35 10° NNW
Milstar 3 3.5 09:15:44 34° S 09:16:26 35° SSE 09:22:21 10° E
CZ-2D R/B 4.1 09:20:44 10° NNW 09:23:40 15° WNW 09:23:40 15° WNW
Cosmos 1782 Rocket 3.8 09:23:30 51° SE 09:24:17 62° E 09:28:35 10° NNE
ADEOS II 3.1 09:21:03 10° N 09:25:36 30° WNW 09:25:41 30° WNW
SL-8 Rocket 4.0 09:24:58 35° S 09:27:46 81° E 09:33:55 10° N
Cosmos 2227 4.2 09:27:45 52° WSW 09:28:56 66° WNW 09:34:31 10° NNE
IRS-1D 4.1 09:24:27 10° N 09:29:00 37° WNW 09:29:10 37° WNW
Cosmos 2366 rocket 4.2 09:26:46 26° S 09:30:32 69° E 09:36:51 10° NNE
Delta 142 4.3 09:29:33 49° SW 09:30:36 56° S 09:35:39 10° ESE
CZ-3 R/B 4.5 09:15:05 27° SSW 09:31:45 43° SSE 09:42:46 10° E
NOSS 3-3 (A) 4.2 09:32:01 40° W 09:33:28 49° NW 09:39:28 10° NNE
ATLAS CENTAUR R/B 1.3 09:33:49 60° NW 09:33:49 60° NW 09:37:22 10° NNE
NOSS 3-3 (C) 4.2 09:32:08 40° W 09:33:35 49° NW 09:39:34 10° NNE
Cosmos 676 Rocket 4.0 09:32:40 45° S 09:34:20 85° ESE 09:39:42 10° NNE
IRS-1C 4.0 09:29:15 10° NNE 09:34:36 85° WNW 09:36:27 43° SSW
Iridium 4 Rocket 4.1 09:29:25 10° NNW 09:34:44 44° W 09:35:32 41° WSW
SL-16 R/B 2.6 09:30:29 10° NW 09:35:34 40° W 09:35:34 40° W
Cosmos 2263 Rocket 2.6 09:36:12 39° W 09:37:24 45° WNW 09:42:51 10° N
Iridium 45 4.4 09:38:41 87° S 09:38:44 90° SW 09:42:15 10° N
Cosmos 407 Rocket 4.4 09:41:19 31° W 09:42:04 32° WNW 09:46:47 10° N
Cosmos 1707 3.0 09:41:45 10° NNW 09:45:07 48° WNW 09:45:07 48° WNW
Spot 1 3.9 09:47:00 26° SSE 09:49:19 88° WSW 09:53:26 10° NNW
CZ-4C R/B 3.3 09:43:17 10° NNW 09:51:02 75° ENE 09:59:41 10° SE
ALOS 3.9 09:47:39 10° NE 09:51:49 31° E 09:55:56 10° SSE
Delta 128 3.9 09:51:46 41° SSW 09:52:34 46° S 09:57:15 10° ESE
Cosmos 2341 Rocket 4.3 09:51:38 32° SW 09:53:58 46° W 09:59:56 10° N
Cosmos 1733 3.5 09:52:52 29° SSE 09:54:40 66° E 09:58:29 10° NNE
Cosmos 2218 Rocket 4.0 09:52:26 25° SSW 09:56:16 71° W 10:02:37 10° N
Cosmos 1766 4.0 09:54:22 19° SSE 09:56:54 50° E 10:00:40 10° NNE
SL-08 R/B 3.6 09:52:14 10° SSE 09:57:08 73° ENE 10:02:04 10° N
In-Cosmos 22 4.3 09:52:47 10° NNW 09:58:28 60° W 10:02:30 19° S
Cosmos 1300 Rocket 3.6 10:01:45 20° S 10:04:41 77° E 10:09:01 10° N
Meteor 1-15 Rocket 4.4 10:00:39 13° S 10:05:54 80° E 10:11:49 10° N
Cosmos 1727 Rocket 4.5 10:02:03 10° N 10:08:14 63° E 10:14:27 10° SSE
Cosmos 1844 4.4 10:07:35 10° S 10:12:52 51° ESE 10:18:14 10° NNE
Cosmos 1975 Rocket 2.9 10:10:33 10° NNW 10:14:55 70° W 10:19:12 10° S
Cosmos 1943 3.2 10:09:40 10° NNW 10:15:24 87° WSW 10:21:05 10° SSE
IDEFIX/ARIANE 42P 4.1 10:12:09 10° NNW 10:15:37 18° WNW 10:17:13 16° W
Cosmos 1340 2.7 10:13:37 10° NNW 10:17:17 56° W 10:20:00 17° S
Cosmos 1400 Rocket 3.0 10:16:10 28° SW 10:17:50 48° W 10:21:37 10° N
CZ-3B R/B 3.5 10:12:03 19° WSW 10:19:08 46° S 10:24:13 10° ESE
CZ-2C R/B 2.2 10:14:50 10° N 10:19:24 73° WNW 10:23:06 16° SSW
Cosmos 1626 2.0 10:17:38 10° N 10:21:20 87° W 10:24:59 10° S
Cosmos 1315 Rocket 3.8 10:21:31 10° S 10:25:28 49° E 10:29:25 10° NNE
Cosmos 1674 3.3 10:24:09 10° NNW 10:27:40 35° W 10:30:00 18° SSW
USA 215 3.8 10:23:43 10° NNE 10:29:57 49° NW 10:35:19 14° WSW
PSLV R/B 3.6 10:33:11 10° NNE 10:37:28 83° E 10:41:42 10° S
Cosmos 1850 Rocket 4.1 10:33:53 12° SSW 10:38:45 64° WNW 10:44:00 10° N
METEOR-M 4.3 10:35:12 10° NNE 10:40:33 77° ESE 10:45:52 10° S
ASTRO E2 2.6 10:40:22 13° W 10:43:51 72° S 10:47:48 10° E
Cosmos 468 Rocket 4.1 10:42:27 10° NNW 10:47:46 87° ENE 10:52:59 10° SSE
Cosmos 1025 Rocket 3.2 10:44:26 10° NNW 10:48:37 50° W 10:52:48 10° SSW
Iridium 51 4.5 10:45:22 10° SSW 10:48:38 38° W 10:51:52 10° NNW
Meteor 2-5 Rocket 4.0 10:43:07 10° N 10:49:02 82° E 10:54:50 10° S
Cosmos 1821 Rocket 4.0 10:43:09 10° SSW 10:49:14 61° W 10:55:17 10° N
Cosmos 44 3.7 10:45:48 10° NW 10:50:34 41° WSW 10:55:02 10° S
Cosmos 1844 Rocket 2.9 10:45:28 10° SW 10:50:58 55° WNW 10:56:32 10° N
ARIANE 5 R/B 4.2 10:48:58 10° NNW 10:52:24 18° WNW 10:55:51 10° WSW
Okean 2 Rocket 3.9 10:55:09 10° SW 10:59:12 33° W 11:03:17 10° NNW
Aureole 1 Rocket 3.7 10:55:07 10° SSW 10:59:56 84° WNW 11:06:25 10° NNE
FENGYUN 3A 4.2 10:55:56 10° N 11:01:00 42° WNW 11:06:04 10° SW
CZ-2C R/B 3.9 10:59:10 10° NNW 11:02:15 25° WNW 11:05:22 10° SW
Cosmos 1603 4.4 10:57:54 10° NW 11:02:43 30° WSW 11:07:35 10° SSW
BREEZE M DEB (TANK) 2.3 11:01:18 10° SW 11:07:25 78° NW 11:10:00 10° NE
DNEPR-1 R/B 4.3 11:02:30 10° SW 11:08:13 53° WNW 11:13:00 10° NNE
MOS 1 Rocket 3.6 11:04:01 10° S 11:08:51 55° W 11:14:00 10° NNW
Cosmos 1758 3.4 11:06:43 10° S 11:10:39 84° E 11:14:37 10° N
Cosmos 1867 3.7 11:05:51 10° SW 11:11:13 63° WNW 11:16:39 10° NNE
